Location: Mahannah Oil Field
(37.4664°N, 96.6003°W)
Time: 01:47:05
(UTC+00:00)

Tiros 1 despin weight - Pass Details

Date: 29 January 2021
Orbit: 593 x 642 km, 48.2° (Epoch: 25 February)

Event Time Altitude Azimuth Distance (km) Brightness Sun altitude
Rises 23:03:33 0° 306° (NW) 2,877 ? 7.1°
Reaches altitude 10° 23:06:06 10° 316° (NW) 1,962 ? 6.6°
Maximum altitude 23:10:06 31° 19° (NNE) 1,067 ? 5.9°
Drops below altitude 10° 23:14:04 10° 83° (E) 1,934 ? 5.2°
Sets 23:16:33 0° 94° (E) 2,829 ? 4.8°
